Terminal Aerodrome Forecast
Issued by NWS

Home | Current Version | Previous Version | Text Only | Print | Product List | Glossary On
Versions: 1 2 3 4 5 6 7 8 9 10 11 12 13 14 15
000
FTUS43 KGRR 282300
TAFMKG
TAF
KMKG 282340Z 2900/2924 20007KT P6SM SCT150
     FM291200 19015G22KT P6SM BKN100
     FM291700 19020G32KT P6SM -SHRA OVC050
     FM291900 21020G30KT 5SM -SHRA BR OVC025=

USA.gov is the U.S. government's official web portal to all federal, state and local government web resources and services.